Location: Carrières
(48.9495°N, 2.0407°E)
Time: 11:36:53
(UTC+00:00)

Transit 2A - Pass Details

Date: 28 April 2024
Orbit: 594 x 958 km, 66.7° (Epoch: 24 May)

Event Time Altitude Azimuth Distance (km) Brightness Sun altitude
Rises 10:30:09 0° 325° (NW) 3,172 8.8 51.8°
Reaches altitude 10° 10:33:07 10° 343° (NNW) 2,318 8.2 52.1°
Maximum altitude 10:36:57 19° 29° (NNE) 1,832 8.0 52.4°
Drops below altitude 10° 10:41:01 10° 75° (ENE) 2,490 8.9 52.7°
Sets 10:44:20 0° 92° (E) 3,490 9.6 52.9°
